Time,TemperatureF,DewpointF,PressureIn,WindDirection,WindDirectionDegrees,WindSpeedMPH,WindSpeedGustMPH,Humidity,HourlyPrecipIn,Conditions,Clouds,dailyrainin,SoftwareType,DateUTC
2013-03-11 00:03:00,49.0,37.0,30.05,NNE,20,0.0,7.0,64,0.00,,,0.60,,2013-03-11 05:03:00,
2013-03-11 00:12:00,49.0,37.0,30.05,NNE,20,0.0,7.0,64,0.00,,,0.60,,2013-03-11 05:12:00,
2013-03-11 00:22:00,49.0,37.0,30.05,North,1,2.0,7.0,63,0.00,,,0.60,,2013-03-11 05:22:00,
2013-03-11 00:32:00,49.0,37.0,30.05,North,1,2.0,7.0,63,0.00,,,0.60,,2013-03-11 05:32:00,
2013-03-11 00:43:00,49.0,37.0,30.05,North,1,2.0,7.0,63,0.00,,,0.60,,2013-03-11 05:43:00,
2013-03-11 00:52:00,49.0,37.0,30.04,North,355,2.0,8.0,63,0.00,,,0.60,,2013-03-11 05:52:00,
2013-03-11 01:02:00,49.0,37.0,30.04,North,355,2.0,8.0,63,0.00,,,0.60,,2013-03-11 06:02:00,
2013-03-11 01:12:00,49.0,37.0,30.04,North,355,2.0,8.0,63,0.00,,,0.60,,2013-03-11 06:12:00,
2013-03-11 01:22:00,48.0,36.0,30.04,North,1,3.0,9.0,62,0.00,,,0.60,,2013-03-11 06:22:00,
2013-03-11 01:32:00,48.0,36.0,30.04,North,1,3.0,9.0,62,0.00,,,0.60,,2013-03-11 06:32:00,
2013-03-11 01:42:00,48.0,36.0,30.04,North,1,3.0,9.0,62,0.00,,,0.60,,2013-03-11 06:42:00,
2013-03-11 01:53:00,48.0,36.0,30.04,NNW,336,2.0,6.0,64,0.00,,,0.60,,2013-03-11 06:53:00,
2013-03-11 02:02:00,48.0,36.0,30.04,NNW,336,2.0,6.0,64,0.00,,,0.60,,2013-03-11 07:02:00,
2013-03-11 02:12:00,48.0,36.0,30.04,NNW,336,2.0,6.0,64,0.00,,,0.60,,2013-03-11 07:12:00,
2013-03-11 02:22:00,47.0,36.0,30.04,North,4,1.0,5.0,65,0.00,,,0.60,,2013-03-11 07:22:00,
2013-03-11 02:32:00,47.0,36.0,30.04,North,4,1.0,5.0,65,0.00,,,0.60,,2013-03-11 07:32:00,
2013-03-11 02:42:00,47.0,36.0,30.04,North,4,1.0,5.0,65,0.00,,,0.60,,2013-03-11 07:42:00,
2013-03-11 02:52:00,46.0,36.0,30.04,North,10,0.0,2.0,67,0.00,,,0.59,,2013-03-11 07:52:00,
2013-03-11 03:02:00,46.0,36.0,30.04,North,10,0.0,2.0,67,0.00,,,0.59,,2013-03-11 08:02:00,
2013-03-11 03:12:00,46.0,36.0,30.04,North,10,0.0,2.0,67,0.00,,,0.59,,2013-03-11 08:12:00,
2013-03-11 03:22:00,45.0,35.0,30.03,NW,323,0.0,3.0,69,0.00,,,0.59,,2013-03-11 08:22:00,
2013-03-11 03:32:00,45.0,35.0,30.03,NW,323,0.0,3.0,69,0.00,,,0.59,,2013-03-11 08:32:00,
2013-03-11 03:42:00,45.0,35.0,30.03,NW,323,0.0,3.0,69,0.00,,,0.59,,2013-03-11 08:42:00,
2013-03-11 03:52:00,44.0,35.0,30.02,NNE,22,0.0,1.0,71,0.00,,,0.58,,2013-03-11 08:52:00,
2013-03-11 04:02:00,44.0,35.0,30.02,NNE,22,0.0,1.0,71,0.00,,,0.58,,2013-03-11 09:02:00,
2013-03-11 04:12:00,44.0,35.0,30.02,NNE,22,0.0,1.0,71,0.00,,,0.58,,2013-03-11 09:12:00,
2013-03-11 04:22:00,44.0,36.0,30.02,NNW,334,1.0,3.0,73,0.00,,,0.58,,2013-03-11 09:22:00,
2013-03-11 04:32:00,44.0,36.0,30.02,NNW,334,1.0,3.0,73,0.00,,,0.58,,2013-03-11 09:32:00,
2013-03-11 04:42:00,44.0,36.0,30.02,NNW,334,1.0,3.0,73,0.00,,,0.58,,2013-03-11 09:42:00,
2013-03-11 04:52:00,43.0,35.0,30.01,NNW,336,0.0,2.0,73,0.00,,,0.55,,2013-03-11 09:52:00,
2013-03-11 05:02:00,43.0,35.0,30.01,NNW,336,0.0,2.0,73,0.00,,,0.55,,2013-03-11 10:02:00,
2013-03-11 05:12:00,43.0,35.0,30.01,NNW,336,0.0,2.0,73,0.00,,,0.55,,2013-03-11 10:12:00,
2013-03-11 05:22:00,44.0,34.0,30.01,NW,321,2.0,5.0,68,0.00,,,0.55,,2013-03-11 10:22:00,
2013-03-11 05:32:00,44.0,34.0,30.01,NW,321,2.0,5.0,68,0.00,,,0.55,,2013-03-11 10:32:00,
2013-03-11 05:42:00,44.0,34.0,30.01,NW,321,2.0,5.0,68,0.00,,,0.55,,2013-03-11 10:42:00,
2013-03-11 05:52:00,44.0,34.0,30.01,NNE,26,0.0,3.0,67,0.00,,,0.32,,2013-03-11 10:52:00,
2013-03-11 06:02:00,44.0,34.0,30.01,NNE,26,0.0,3.0,67,0.00,,,0.32,,2013-03-11 11:02:00,
2013-03-11 06:12:00,44.0,34.0,30.01,NNE,26,0.0,3.0,67,0.00,,,0.32,,2013-03-11 11:12:00,
2013-03-11 06:22:00,43.0,32.0,30.03,NNW,340,3.0,6.0,64,0.00,,,0.32,,2013-03-11 11:22:00,
2013-03-11 06:32:00,43.0,32.0,30.03,NNW,340,3.0,6.0,64,0.00,,,0.32,,2013-03-11 11:32:00,
2013-03-11 06:43:00,43.0,32.0,30.03,NNW,340,3.0,6.0,64,0.00,,,0.32,,2013-03-11 11:43:00,
2013-03-11 06:53:00,43.0,32.0,30.04,NW,324,0.0,2.0,64,0.00,,,0.03,,2013-03-11 11:53:00,
2013-03-11 07:02:00,43.0,32.0,30.04,NW,324,0.0,2.0,64,0.00,,,0.03,,2013-03-11 12:02:00,
2013-03-11 07:12:00,43.0,32.0,30.04,NW,324,0.0,2.0,64,0.00,,,0.03,,2013-03-11 12:12:00,
2013-03-11 07:22:00,45.0,31.0,30.05,NNW,343,6.0,14.0,58,0.00,,,0.03,,2013-03-11 12:22:00,
2013-03-11 07:32:00,45.0,31.0,30.05,NNW,343,6.0,14.0,58,0.00,,,0.03,,2013-03-11 12:32:00,
2013-03-11 07:43:00,45.0,31.0,30.05,NNW,343,6.0,14.0,58,0.00,,,0.03,,2013-03-11 12:43:00,
2013-03-11 07:53:00,43.0,30.0,30.08,NW,306,2.0,8.0,61,0.00,,,0.02,,2013-03-11 12:53:00,
2013-03-11 08:02:00,43.0,30.0,30.08,NW,306,2.0,8.0,61,0.00,,,0.02,,2013-03-11 13:02:00,
2013-03-11 08:12:00,43.0,30.0,30.08,NW,306,2.0,8.0,61,0.00,,,0.02,,2013-03-11 13:12:00,
2013-03-11 08:22:00,41.0,30.0,30.08,NW,309,0.0,2.0,64,0.00,,,0.02,,2013-03-11 13:22:00,
2013-03-11 08:32:00,41.0,30.0,30.08,NW,309,0.0,2.0,64,0.00,,,0.02,,2013-03-11 13:32:00,
2013-03-11 08:43:00,41.0,30.0,30.08,NW,309,0.0,2.0,64,0.00,,,0.02,,2013-03-11 13:43:00,
2013-03-11 08:52:00,42.0,31.0,30.09,NW,311,2.0,5.0,65,0.00,,,0.01,,2013-03-11 13:52:00,
2013-03-11 09:02:00,42.0,31.0,30.09,NW,311,2.0,5.0,65,0.00,,,0.01,,2013-03-11 14:02:00,
2013-03-11 09:12:00,42.0,31.0,30.09,NW,311,2.0,5.0,65,0.00,,,0.01,,2013-03-11 14:12:00,
2013-03-11 09:22:00,44.0,29.0,30.10,NW,323,5.0,9.0,56,0.00,,,0.01,,2013-03-11 14:22:00,
2013-03-11 09:32:00,44.0,29.0,30.10,NW,323,5.0,9.0,56,0.00,,,0.01,,2013-03-11 14:32:00,
2013-03-11 09:43:00,44.0,29.0,30.10,NW,323,5.0,9.0,56,0.00,,,0.01,,2013-03-11 14:43:00,
2013-03-11 09:53:00,46.0,28.0,30.11,NNW,340,4.0,9.0,50,0.00,,,0.00,,2013-03-11 14:53:00,
2013-03-11 10:02:00,46.0,28.0,30.11,NNW,340,4.0,9.0,50,0.00,,,0.00,,2013-03-11 15:02:00,
2013-03-11 10:12:00,46.0,28.0,30.11,NNW,340,4.0,9.0,50,0.00,,,0.00,,2013-03-11 15:12:00,
2013-03-11 10:22:00,48.0,27.0,30.11,NW,310,7.0,11.0,43,0.00,,,0.00,,2013-03-11 15:22:00,
2013-03-11 10:32:00,48.0,27.0,30.11,NW,310,7.0,11.0,43,0.00,,,0.00,,2013-03-11 15:32:00,
2013-03-11 10:43:00,48.0,27.0,30.11,NW,310,7.0,11.0,43,0.00,,,0.00,,2013-03-11 15:43:00,
2013-03-11 10:53:00,50.0,25.0,30.11,North,11,6.0,15.0,37,0.00,,,0.00,,2013-03-11 15:53:00,
2013-03-11 11:02:00,50.0,25.0,30.11,North,11,6.0,15.0,37,0.00,,,0.00,,2013-03-11 16:02:00,
2013-03-11 11:12:00,50.0,25.0,30.11,North,11,6.0,15.0,37,0.00,,,0.00,,2013-03-11 16:12:00,
2013-03-11 11:22:00,51.0,26.0,30.11,WNW,288,6.0,16.0,37,0.00,,,0.00,,2013-03-11 16:22:00,
2013-03-11 11:32:00,51.0,26.0,30.11,WNW,288,6.0,16.0,37,0.00,,,0.00,,2013-03-11 16:32:00,
2013-03-11 11:43:00,51.0,26.0,30.11,WNW,288,6.0,16.0,37,0.00,,,0.00,,2013-03-11 16:43:00,
2013-03-11 11:52:00,52.0,23.0,30.11,NE,36,6.0,17.0,32,0.00,,,0.00,,2013-03-11 16:52:00,
2013-03-11 12:02:00,52.0,23.0,30.11,NE,36,6.0,17.0,32,0.00,,,0.00,,2013-03-11 17:02:00,
2013-03-11 12:14:00,52.0,23.0,30.11,NE,36,6.0,17.0,32,0.00,,,0.00,,2013-03-11 17:14:00,
2013-03-11 12:25:00,53.0,23.0,30.10,NE,53,5.0,13.0,31,0.00,,,0.00,,2013-03-11 17:25:00,
2013-03-11 12:30:00,53.0,25.0,30.09,West,281,5.0,15.0,34,0.00,,,0.00,,2013-03-11 17:30:00,
2013-03-11 12:34:00,53.0,23.0,30.10,NE,53,5.0,13.0,31,0.00,,,0.00,,2013-03-11 17:34:00,
2013-03-11 12:42:00,53.0,23.0,30.10,NE,53,5.0,13.0,31,0.00,,,0.00,,2013-03-11 17:42:00,
2013-03-11 12:53:00,53.0,25.0,30.09,West,281,5.0,15.0,34,0.00,,,0.00,,2013-03-11 17:53:00,
2013-03-11 13:12:00,53.0,25.0,30.09,West,281,5.0,15.0,34,0.00,,,0.00,,2013-03-11 18:12:00,
2013-03-11 13:22:00,53.0,25.0,30.09,West,281,5.0,15.0,34,0.00,,,0.00,,2013-03-11 18:22:00,
2013-03-11 13:53:00,56.0,26.0,30.06,NNE,24,7.0,12.0,31,0.00,,,0.00,,2013-03-11 18:53:00,
2013-03-11 14:02:00,56.0,26.0,30.06,NNE,24,7.0,12.0,31,0.00,,,0.00,,2013-03-11 19:02:00,
2013-03-11 14:12:00,56.0,26.0,30.06,NNE,24,7.0,12.0,31,0.00,,,0.00,,2013-03-11 19:12:00,
2013-03-11 14:22:00,57.0,22.0,30.05,NW,321,7.0,13.0,26,0.00,,,0.00,,2013-03-11 19:22:00,
2013-03-11 14:32:00,57.0,22.0,30.05,NW,321,7.0,13.0,26,0.00,,,0.00,,2013-03-11 19:32:00,
2013-03-11 14:43:00,57.0,22.0,30.05,NW,321,7.0,13.0,26,0.00,,,0.00,,2013-03-11 19:43:00,
2013-03-11 14:53:00,59.0,26.0,30.03,NNW,339,5.0,16.0,28,0.00,,,0.00,,2013-03-11 19:53:00,
2013-03-11 15:02:00,59.0,26.0,30.03,NNW,339,5.0,16.0,28,0.00,,,0.00,,2013-03-11 20:02:00,
2013-03-11 15:12:00,59.0,26.0,30.03,NNW,339,5.0,16.0,28,0.00,,,0.00,,2013-03-11 20:12:00,
2013-03-11 15:22:00,59.0,22.0,30.02,NNW,332,6.0,12.0,24,0.00,,,0.00,,2013-03-11 20:22:00,
2013-03-11 15:32:00,59.0,22.0,30.02,NNW,332,6.0,12.0,24,0.00,,,0.00,,2013-03-11 20:32:00,
2013-03-11 15:44:00,59.0,22.0,30.02,NNW,332,6.0,12.0,24,0.00,,,0.00,,2013-03-11 20:44:00,
2013-03-11 15:53:00,59.0,23.0,30.00,NNW,333,6.0,13.0,25,0.00,,,0.00,,2013-03-11 20:53:00,
2013-03-11 16:03:00,59.0,23.0,30.00,NNW,333,6.0,13.0,25,0.00,,,0.00,,2013-03-11 21:03:00,
2013-03-11 16:12:00,59.0,23.0,30.00,NNW,333,6.0,13.0,25,0.00,,,0.00,,2013-03-11 21:12:00,
2013-03-11 16:22:00,60.0,23.0,29.99,North,356,4.0,12.0,24,0.00,,,0.00,,2013-03-11 21:22:00,
2013-03-11 16:32:00,60.0,23.0,29.99,North,356,4.0,12.0,24,0.00,,,0.00,,2013-03-11 21:32:00,
2013-03-11 16:44:00,60.0,23.0,29.99,North,356,4.0,12.0,24,0.00,,,0.00,,2013-03-11 21:44:00,
2013-03-11 16:53:00,61.0,25.0,29.98,North,352,5.0,10.0,25,0.00,,,0.00,,2013-03-11 21:53:00,
2013-03-11 17:02:00,61.0,25.0,29.98,North,352,5.0,10.0,25,0.00,,,0.00,,2013-03-11 22:02:00,
2013-03-11 17:12:00,61.0,25.0,29.98,North,352,5.0,10.0,25,0.00,,,0.00,,2013-03-11 22:12:00,
2013-03-11 17:22:00,61.0,26.0,29.97,North,3,5.0,13.0,26,0.00,,,0.00,,2013-03-11 22:22:00,
2013-03-11 17:32:00,61.0,26.0,29.97,North,3,5.0,13.0,26,0.00,,,0.00,,2013-03-11 22:32:00,
2013-03-11 17:43:00,61.0,26.0,29.97,North,3,5.0,13.0,26,0.00,,,0.00,,2013-03-11 22:43:00,
2013-03-11 17:53:00,62.0,26.0,29.96,NNE,17,4.0,8.0,25,0.00,,,0.00,,2013-03-11 22:53:00,
2013-03-11 18:03:00,62.0,26.0,29.96,NNE,17,4.0,8.0,25,0.00,,,0.00,,2013-03-11 23:03:00,
2013-03-11 18:12:00,62.0,26.0,29.96,NNE,17,4.0,8.0,25,0.00,,,0.00,,2013-03-11 23:12:00,
2013-03-11 18:22:00,61.0,27.0,29.96,NNE,15,4.0,12.0,27,0.00,,,0.00,,2013-03-11 23:22:00,
2013-03-11 18:32:00,61.0,27.0,29.96,NNE,15,4.0,12.0,27,0.00,,,0.00,,2013-03-11 23:32:00,
2013-03-11 18:43:00,61.0,27.0,29.96,NNE,15,4.0,12.0,27,0.00,,,0.00,,2013-03-11 23:43:00,
2013-03-11 18:53:00,61.0,27.0,29.97,North,350,3.0,11.0,27,0.00,,,0.00,,2013-03-11 23:53:00,
2013-03-11 19:02:00,61.0,27.0,29.97,North,350,3.0,11.0,27,0.00,,,0.00,,2013-03-12 00:02:00,
2013-03-11 19:12:00,61.0,27.0,29.97,North,350,3.0,11.0,27,0.00,,,0.00,,2013-03-12 00:12:00,
2013-03-11 19:22:00,60.0,26.0,29.98,NNW,343,1.0,9.0,27,0.00,,,0.00,,2013-03-12 00:22:00,
2013-03-11 19:33:00,60.0,26.0,29.98,NNW,343,1.0,9.0,27,0.00,,,0.00,,2013-03-12 00:33:00,
2013-03-11 19:43:00,60.0,26.0,29.98,NNW,343,1.0,9.0,27,0.00,,,0.00,,2013-03-12 00:43:00,
2013-03-11 19:53:00,57.0,28.0,29.98,NNE,30,0.0,3.0,33,0.00,,,0.00,,2013-03-12 00:53:00,
2013-03-11 20:02:00,57.0,28.0,29.98,NNE,30,0.0,3.0,33,0.00,,,0.00,,2013-03-12 01:02:00,
2013-03-11 20:12:00,57.0,28.0,29.98,NNE,30,0.0,3.0,33,0.00,,,0.00,,2013-03-12 01:12:00,
2013-03-11 20:22:00,52.0,32.0,29.98,NNE,30,0.0,0.0,46,0.00,,,0.00,,2013-03-12 01:22:00,
2013-03-11 20:32:00,52.0,32.0,29.98,NNE,30,0.0,0.0,46,0.00,,,0.00,,2013-03-12 01:32:00,
2013-03-11 20:42:00,52.0,32.0,29.98,NNE,30,0.0,0.0,46,0.00,,,0.00,,2013-03-12 01:42:00,
2013-03-11 20:52:00,47.0,32.0,29.99,NNE,30,0.0,0.0,56,0.00,,,0.00,,2013-03-12 01:52:00,
2013-03-11 21:02:00,47.0,32.0,29.99,NNE,30,0.0,0.0,56,0.00,,,0.00,,2013-03-12 02:02:00,
2013-03-11 21:12:00,47.0,32.0,29.99,NNE,30,0.0,0.0,56,0.00,,,0.00,,2013-03-12 02:12:00,
2013-03-11 21:22:00,45.0,33.0,30.01,NNE,30,0.0,0.0,63,0.00,,,0.00,,2013-03-12 02:22:00,
2013-03-11 21:32:00,45.0,33.0,30.01,NNE,30,0.0,0.0,63,0.00,,,0.00,,2013-03-12 02:32:00,
2013-03-11 21:43:00,45.0,33.0,30.01,NNE,30,0.0,0.0,63,0.00,,,0.00,,2013-03-12 02:43:00,
2013-03-11 21:52:00,43.0,35.0,30.01,NNE,30,0.0,0.0,73,0.00,,,0.00,,2013-03-12 02:52:00,
2013-03-11 22:02:00,43.0,35.0,30.01,NNE,30,0.0,0.0,73,0.00,,,0.00,,2013-03-12 03:02:00,
2013-03-11 22:12:00,43.0,35.0,30.01,NNE,30,0.0,0.0,73,0.00,,,0.00,,2013-03-12 03:12:00,
2013-03-11 22:22:00,42.0,35.0,30.02,NNE,30,0.0,0.0,76,0.00,,,0.00,,2013-03-12 03:22:00,
2013-03-11 22:32:00,42.0,35.0,30.02,NNE,30,0.0,0.0,76,0.00,,,0.00,,2013-03-12 03:32:00,
2013-03-11 22:42:00,42.0,35.0,30.02,NNE,30,0.0,0.0,76,0.00,,,0.00,,2013-03-12 03:42:00,
2013-03-11 22:53:00,41.0,34.0,30.03,NNE,30,0.0,0.0,76,0.00,,,0.00,,2013-03-12 03:53:00,
2013-03-11 23:02:00,41.0,34.0,30.03,NNE,30,0.0,0.0,76,0.00,,,0.00,,2013-03-12 04:02:00,
2013-03-11 23:13:00,41.0,34.0,30.03,NNE,30,0.0,0.0,76,0.00,,,0.00,,2013-03-12 04:13:00,
2013-03-11 23:22:00,40.0,32.0,30.03,NNE,30,0.0,0.0,74,0.00,,,0.00,,2013-03-12 04:22:00,
2013-03-11 23:32:00,40.0,32.0,30.03,NNE,30,0.0,0.0,74,0.00,,,0.00,,2013-03-12 04:32:00,
2013-03-11 23:43:00,40.0,32.0,30.03,NNE,30,0.0,0.0,74,0.00,,,0.00,,2013-03-12 04:43:00,
2013-03-11 23:52:00,39.0,32.0,30.03,NNE,30,0.0,0.0,77,0.00,,,0.00,,2013-03-12 04:52:00,